Miscellaneous Local Product
Issued by NWS North Platte, NE

Home | Current Version | Previous Version | Text Only | Print | Product List | Glossary On
Versions: 1 2 3 4 5 6 7 8 9 10 11 12 13 14 15 16 17 18 19 20 21 22 23 24 25 26 27 28 29 30 31 32 33 34 35 36 37 38 39 40 41 42 43 44 45 46 47 48 49 50
414
AXUS43 KLBF 251010
MISLBF


WESTERN AND NORTH CENTRAL NEBRASKA HOURLY WEATHER ROUNDUP
NATIONAL WEATHER SERVICE NORTH PLATTE NE
400 AM CST SAT NOV 25 2017

NOTE: "FAIR" INDICATES FEW OR NO CLOUDS BELOW 12,000 FEET WITH NO
SIGNIFICANT WEATHER AND/OR OBSTRUCTIONS TO VISIBILITY.

NOTE: STATIONS NOT REPORTING VARIABLES SUCH AS SKY/WEATHER OR
PRESSURE ARE PROVIDED BY RAWS AND APRS NETWORKS AND ARE NOT UNDER
NATIONAL WEATHER SERVICE QUALITY CONTROL.

...OBSERVATIONS IN AND NEAR THE EASTERN PANHANDLE OF NEBRASKA...

CITY           SKY/WX    TMP DP  RH WIND       PRES   REMARKS
PINE RIDGE     CLEAR     19  16  88 CALM      30.09S
GORDON         FAIR      26  22  85 CALM      30.10S
CHADRON        CLOUDY    32  28  85 SW3       30.09F
ALLIANCE       CLOUDY    20  18  92 S5        30.10R WCI  13
SIDNEY         CLOUDY    27  22  81 W9        30.12S WCI  18
$$

...OBSERVATIONS IN NORTHERN NEBRASKA AND FAR SOUTHERN SOUTH DAKOTA...

CITY           SKY/WX    TMP DP  RH WIND       PRES   REMARKS
WINNER         FAIR      36  29  75 SW9       30.07R WCI  29
VALENTINE      CLEAR     30  25  81 CALM      30.09R
THEDFORD       CLEAR     27  24  89 W5        30.11R WCI  21
AINSWORTH      CLEAR     31  29  89 W5        30.09R WCI  27
O`NEILL        CLEAR     30  28  93 W5        30.06S WCI  25
ORD            CLEAR     27  23  85 NW3       30.08R
BROKEN BOW     CLEAR     26  21  81 W3        30.09R
VALENTINE NWR    N/A     31  27  85 W3          N/A
HALSEY           N/A     31  25  77 W3          N/A
BUTTE            N/A     32  29  88 W7          N/A  WCI  26
CHAMBERS         N/A     30  25  81 CALM        N/A
EWING            N/A     29  27  92 W3          N/A
$$

...OBSERVATIONS IN SOUTHWEST NEBRASKA AND FAR NORTHEAST COLORADO...

CITY           SKY/WX    TMP DP  RH WIND       PRES   REMARKS
HOLYOKE        FAIR      30  23  74 W8        30.14R WCI  23
IMPERIAL       CLEAR     33  26  75 NW5       30.13R WCI  29
OGALLALA       CLOUDY    28  24  88 CALM      30.13S
NORTH PLATTE   PTCLDY    28  24  85 NW9       30.14R WCI  19
MCCOOK         PTCLDY    32  27  81 NW8       30.14R WCI  25
LEXINGTON      PTCLDY    30  25  82 W9        30.12R WCI  22
STAPLETON        N/A     31  26  80 CALM        N/A
GOTHENBURG       N/A     31  24  75 W5          N/A  WCI  26
CALLAWAY         N/A     28  24  86 NW6         N/A  WCI  22
$$

...OBSERVATIONS IN CENTRAL LINCOLN COUNTY AREA...

CITY           SKY/WX    TMP DP  RH WIND       PRES   REMARKS
N.P. AIRPORT   PTCLDY    28  24  85 NW9       30.14R WCI  19
N.P. DOWNTOWN    N/A     31  26  82 CALM        N/A
N.P. SOUTHEAST   N/A     31  25  79 CALM        N/A
N.P. HILLCREST   N/A     31  25  79 N3          N/A
$$

...SOME OBSERVATIONS FROM AROUND THE REGION...

CITY           SKY/WX    TMP DP  RH WIND       PRES   REMARKS
DENVER         CLOUDY    36  31  82 W5        30.12S WCI  32
COPPER MTN     CLOUDY    30  14  51 MISG      30.36R
GRAND JUNCTION CLOUDY    40  29  64 E5        30.18S
LARAMIE        CLOUDY    40  26  57 SW17      30.13S WCI  31
CHEYENNE       CLOUDY    38  33  82 SW12      30.14R WCI  30
CASPER         CLOUDY    35  30  82 SW10      30.09R WCI  27
BISMARCK       PTCLDY    28  26  92 W5        30.00R WCI  23
RAPID CITY     CLEAR     26  18  71 NW5       30.07R WCI  20
PIERRE         CLEAR     31  29  92 W10       30.04R WCI  22
SIOUX FALLS    CLEAR     33  30  88 W6        29.99S WCI  28
OMAHA          CLEAR     35  29  78 CALM      30.05R
GRAND ISLAND   CLEAR     32  29  88 W9        30.09R WCI  24
SCOTTSBLUFF    CLOUDY    27  20  75 CALM      30.10R
KANSAS CITY    CLEAR     42  36  79 N7        30.02R
HILL CITY      CLEAR     36  30  79 W6        30.12R WCI  31
WICHITA        CLEAR     50  35  56 NE13      30.03S
DODGE CITY     CLEAR     39  30  70 N9        30.09R WCI  33
OKLAHOMA CITY  PTCLDY    49  36  61 N10       29.96R
DALLAS         PTCLDY    50  40  68 SE6       29.85R
AMARILLO       CLEAR     47  36  65 N10       30.04S
$$




USA.gov is the U.S. government's official web portal to all federal, state and local government web resources and services.